Stations météo

réclame
Mon MeteoGroup
Aurillac, France (7549): Température de l'air & dewpoint: 11.01.2019 01:00:00 - 17.01.2019 01:00:00 (CET)Aurillac, France (7549): Température de l'air 5cm: 11.01.2019 01:00:00 - 17.01.2019 01:00:00 (CET)Aurillac, France (7549): Température de l'air -20cm & Température de l'air -100cm: 11.01.2019 01:00:00 - 17.01.2019 01:00:00 (CET)Aurillac, France (7549): Vitesse du vent & gusts: 11.01.2019 01:00:00 - 17.01.2019 01:00:00 (CET)Aurillac, France (7549): Direction du vent: 11.01.2019 01:00:00 - 17.01.2019 01:00:00 (CET)Aurillac, France (7549): reduced air pressure: 11.01.2019 01:00:00 - 17.01.2019 01:00:00 (CET)Aurillac, France (7549): visibility: 11.01.2019 01:00:00 - 17.01.2019 01:00:00 (CET)Aurillac, France (7549): Ensoleillement: 11.01.2019 01:00:00 - 17.01.2019 01:00:00 (CET)Aurillac, France (7549): Quantités de précipitations: 11.01.2019 01:00:00 - 17.01.2019 01:00:00 (CET)
Date & Time tt [°C] td [°C] tt 5cm [°C] tt -20cm [°C] tt -100cm [°C] ff [km/h] ff [knt] fx [km/h] fx [knt] dd ppp [hPa] vv [km] sd [min] rr [mm]
17.01.2019 01:00:00 4,4 2,3 3,4 4,1 7,8 4 2 22 12 E 1016,8 14 0 0,0
17.01.2019 00:00:00 4,2 2,1 2,7 4,1 7,8 7 4 14 7 SE 1017,3 15 0 0,0
16.01.2019 23:00:00 3,8 2,2 1,9 4,1 7,8 6 3 16 8 ESE 1017,6 13 0 0,0
16.01.2019 22:00:00 3,2 1,4 0,2 4,1 7,8 4 2 10 5 E 1018,3 13 0 0,0
16.01.2019 21:00:00 2,9 0,8 -1,8 4,0 7,8 6 4 10 5 SE 1018,3 12 0 0,0
16.01.2019 20:00:00 3,9 0,2 -0,8 4,0 7,8 4 2 12 6 WSW 1017,6 20 0 0,0
16.01.2019 19:00:00 4,6 0,5 -0,8 3,9 7,8 5 3 9 5 SSE 1016,7 8 0 0,0
16.01.2019 18:00:00 5,7 0,5 0,5 3,9 7,8 2 1 16 9 S 1016,0 16 10 0,0
16.01.2019 17:00:00 8,8 1,2 9,3 3,8 7,8 11 6 25 13 SW 1015,1 16 60 0,0
16.01.2019 16:00:00 9,7 1,3 12,4 3,8 7,8 13 7 23 13 S 1014,6 60 60 0,0
16.01.2019 15:00:00 9,7 0,8 13,4 3,8 7,8 14 8 26 14 S 1014,9 60 60 0,0
16.01.2019 14:00:00 10,1 -0,4 13,2 3,8 7,8 14 7 27 15 SSE 1014,8 60 60 0,0
16.01.2019 13:00:00 9,1 -1,3 11,6 3,8 7,8 16 9 30 16 SSE 1015,7 60 60 0,0
16.01.2019 12:00:00 8,8 -3,4 11,4 3,8 7,8 16 9 24 13 SE 1016,3 60 60 0,0
16.01.2019 11:00:00 7,7 -2,6 5,8 3,9 7,8 7 4 15 8 SE 1016,8 59 60 0,0
16.01.2019 10:00:00 2,4 -3,7 0,2 3,9 7,8 10 6 17 9 ESE 1018,1 46 60 0,0
16.01.2019 09:00:00 -0,1 -4,7 -3,2 3,9 7,8 12 6 17 9 E 1018,5 57 2 0,0
16.01.2019 08:00:00 -1,3 -4,8 -4,0 4,0 7,8 13 7 15 8 ESE 1018,9 60 0 0,0
16.01.2019 07:00:00 -1,7 -4,7 -4,9 4,0 7,8 12 7 21 11 ESE 1019,2 60 0 0,0
16.01.2019 06:00:00 -1,4 -4,6 -4,8 4,1 7,9 13 7 18 10 ESE 1019,5 60 0 0,0
16.01.2019 05:00:00 -1,1 -4,1 -4,2 4,1 7,9 13 7 16 9 ESE 1019,9 60 0 0,0
16.01.2019 04:00:00 -2,0 -4,7 -4,9 4,1 7,9 14 8 17 9 ESE 1020,6 60 0 0,0
16.01.2019 03:00:00 -1,8 -3,8 -4,8 4,2 7,8 10 5 16 8 ESE 1021,1 60 0 0,0
16.01.2019 02:00:00 -0,7 -3,4 -4,7 4,2 7,8 14 8 18 10 ESE 1020,9 60 0 0,0
16.01.2019 01:00:00 -1,5 -3,2 -4,6 4,3 7,9 13 7 14 8 ESE 1021,6 17 0 0,0
16.01.2019 00:00:00 -1,1 -3,0 -2,7 4,3 7,9 11 6 16 9 ESE 1022,2 19 0 0,0
15.01.2019 23:00:00 -0,9 -1,9 -4,1 4,3 7,9 11 6 14 8 ESE 1022,2 14 0 0,0
15.01.2019 22:00:00 -1,4 -2,2 -4,6 4,3 7,9 11 6 14 7 ESE 1022,6 8 0 0,0
15.01.2019 21:00:00 -0,4 -1,5 -4,3 4,3 7,9 8 5 10 5 ESE 1022,7 12 0 0,0
15.01.2019 20:00:00 -0,1 -1,5 -4,0 4,2 7,9 5 3 9 5 E 1023,0 13 0 0,0
15.01.2019 19:00:00 1,6 -1,1 -3,1 4,2 7,9 6 3 8 4 SE 1022,5 10 0 0,0
15.01.2019 18:00:00 4,0 -0,6 -1,0 4,1 7,9 3 1 10 5 W 1021,8 20 9 0,0
15.01.2019 17:00:00 6,6 0,1 6,1 4,1 7,9 8 4 10 5 NW 1021,1 55 60 0,0
15.01.2019 16:00:00 7,5 0,0 11,3 4,0 7,9 6 4 10 5 WNW 1021,2 45 60 0,0
15.01.2019 15:00:00 7,5 -0,2 12,4 4,0 7,9 6 3 11 6 NW 1021,5 20 60 0,0
15.01.2019 14:00:00 8,3 0,3 13,6 4,1 7,9 3 1 8 4 ESE 1022,1 20 60 0,0
15.01.2019 13:00:00 6,4 -0,4 12,1 4,1 7,9 0 0 8 5 N 1023,4 20 60 0,0
15.01.2019 12:00:00 6,5 0,2 8,3 4,1 7,9 2 1 9 5 WSW 1024,1 45 60 0,0
15.01.2019 11:00:00 1,4 -1,0 3,6 4,2 7,9 5 3 9 5 E 1026,2 16 60 0,0
15.01.2019 10:00:00 -0,9 -1,7 -3,4 4,3 7,9 2 1 5 3 E 1027,0 11 60 0,0
15.01.2019 09:00:00 -3,5 -3,9 -7,5 4,3 7,9 3 2 9 5 ESE 1027,4 10 9 0,0
15.01.2019 08:00:00 -4,0 -4,4 -8,7 4,4 7,9 5 3 7 4 ESE 1027,2 10 0 0,0
15.01.2019 07:00:00 -4,4 -4,9 -8,2 4,4 7,9 2 1 7 4 SE 1027,5 10 0 0,0
15.01.2019 06:00:00 -3,4 -3,9 -7,4 4,5 7,9 5 3 9 5 ESE 1026,9 6 0 0,0
15.01.2019 05:00:00 -3,8 -4,5 -7,4 4,5 7,9 7 4 9 5 E 1027,2 11 0 0,0
15.01.2019 04:00:00 -2,9 -3,6 -7,1 4,5 7,9 4 2 9 5 E 1027,3 17 0 0,0
15.01.2019 03:00:00 -2,7 -3,5 -6,9 4,5 7,9 7 4 10 5 E 1027,2 16 0 0,0
15.01.2019 02:00:00 -1,8 -2,9 -5,5 4,5 7,9 6 3 8 4 E 1026,9 19 0 0,0
15.01.2019 01:00:00 -0,1 -2,0 -4,3 4,5 7,9 4 2 5 3 NE 1026,6 29 0 0,0
15.01.2019 00:00:00 1,9 -1,9 -1,6 4,5 7,9 4 2 15 8 NNE 1026,1 60 0 0,0
14.01.2019 23:00:00 2,7 -0,4 0,3 4,5 7,9 6 3 17 9 N 1025,7 60 0 0,0
14.01.2019 22:00:00 3,5 0,9 1,5 4,5 7,9 4 2 18 10 NNW 1025,4 60 0 0,0
14.01.2019 21:00:00 4,2 1,4 3,8 4,5 7,9 8 5 16 9 NNW 1024,9 60 0 0,0
14.01.2019 20:00:00 4,4 1,2 3,8 4,4 7,9 7 4 12 7 N 1024,6 60 0 0,0
14.01.2019 19:00:00 4,6 1,1 3,8 4,4 7,9 6 3 22 12 N 1024,1 60 0 0,0
14.01.2019 18:00:00 5,0 0,9 4,5 4,3 7,9 12 7 29 16 N 1023,8 60 0 0,0
14.01.2019 17:00:00 6,2 3,9 6,2 4,3 7,9 12 7 22 12 NNW 1022,8 60 0 0,0
14.01.2019 16:00:00 6,5 4,2 6,8 4,3 7,9 12 6 25 13 NW 1022,4 60 10 0,0
14.01.2019 15:00:00 6,7 4,4 7,5 4,2 8,0 17 9 24 13 WNW 1021,9 60 3 0,0
14.01.2019 14:00:00 6,9 3,1 7,7 4,2 8,0 18 10 30 16 NNW 1022,0 60 1 0,0
14.01.2019 13:00:00 6,7 4,2 6,0 4,2 8,0 14 8 28 15 NNW 1022,2 60 6 0,0
14.01.2019 12:00:00 5,5 4,9 5,8 4,1 8,0 16 8 29 16 NW 1022,7 8 0 0,0
14.01.2019 11:00:00 5,3 4,9 5,2 4,1 8,0 18 10 33 18 WNW 1022,5 16 0 0,0
14.01.2019 10:00:00 4,9 4,5 4,6 4,1 8,0 16 9 24 13 WNW 1022,2 60 0 0,0
14.01.2019 09:00:00 4,6 4,2 4,4 4,1 8,0 18 10 27 15 WNW 1021,6 59 0 0,0
14.01.2019 08:00:00 4,6 4,3 4,4 4,1 8,0 19 11 33 18 NW 1020,9 4,9 0 0,2
14.01.2019 07:00:00 4,8 4,7 4,7 4,0 8,0 18 10 33 18 NW 1020,4 8 0 0,4
14.01.2019 06:00:00 5,0 4,9 4,9 4,0 8,0 22 12 31 17 NW 1020,4 3,6 0 0,0
14.01.2019 05:00:00 4,9 4,6 4,8 4,0 8,0 18 10 34 18 NW 1020,5 1,7 0 0,2
14.01.2019 04:00:00 5,1 4,7 4,8 3,9 8,0 24 13 37 20 NW 1020,9 17 0 0,0
14.01.2019 03:00:00 5,2 5,1 5,0 3,9 8,0 16 9 30 16 WNW 1021,2 3,1 0 0,4
14.01.2019 02:00:00 5,1 4,8 4,9 3,9 8,0 16 9 31 17 WNW 1021,4 3,7 0 0,2
14.01.2019 01:00:00 5,1 4,7 4,9 3,9 8,0 16 8 40 22 WNW 1021,7 7 0 0,0
14.01.2019 00:00:00 5,4 5,3 5,2 3,8 8,0 23 13 44 24 WNW 1022,2 51 0 0,0
13.01.2019 23:00:00 5,7 5,7 5,7 3,8 8,0 23 12 35 19 WNW 1022,3 13 0 0,6
13.01.2019 22:00:00 5,7 5,7 5,6 3,8 8,0 10 6 29 15 WNW 1022,8 0,5 0 0,4
13.01.2019 21:00:00 5,6 5,6 4,8 3,7 8,1 13 7 18 10 WNW 1022,9 2,1 0 0,2
13.01.2019 20:00:00 4,8 4,7 4,8 3,7 8,1 3 2 11 6 WNW 1023,6 0,3 0 0,6
13.01.2019 19:00:00 4,8 4,7 4,8 3,7 8,1 7 4 10 5 WNW 1024,0 0,2 0 0,2
13.01.2019 18:00:00 4,9 4,8 4,9 3,6 8,1 8 4 27 14 WNW 1024,3 0,3 0 0,2
13.01.2019 17:00:00 5,1 5,0 5,3 3,6 8,1 20 11 29 16 WNW 1024,5 1,7 0 0,4
13.01.2019 16:00:00 5,4 5,3 5,6 3,5 8,1 16 9 31 17 NW 1024,6 1,1 0 0,0
13.01.2019 15:00:00 5,7 5,6 6,2 3,5 8,1 21 11 29 16 NW 1024,3 6 0 0,0
13.01.2019 14:00:00 5,6 5,5 6,1 3,4 8,1 20 11 32 17 NW 1024,7 11 0 0,0
13.01.2019 13:00:00 5,3 5,3 5,8 3,4 8,1 21 11 29 16 WNW 1025,6 4,4 0 0,0
13.01.2019 12:00:00 5,0 5,0 4,8 3,4 8,1 18 10 31 17 WNW 1026,3 1,1 0 0,0
13.01.2019 11:00:00 4,3 4,2 4,3 3,4 8,1 17 9 27 14 NW 1027,0 0,3 0 0,2
13.01.2019 10:00:00 4,0 3,9 3,3 3,4 8,1 18 10 27 15 NW 1027,0 0,2 0 0,0
13.01.2019 09:00:00 3,2 3,1 2,8 3,4 8,1 12 7 18 10 NW 1027,1 0,5 0 0,0
13.01.2019 08:00:00 2,8 2,7 2,7 3,4 8,1 10 5 16 9 NNW 1027,2 1,1 0 0,0
13.01.2019 07:00:00 2,7 2,6 2,4 3,3 8,1 11 6 18 10 NW 1027,1 0,4 0 0,2
13.01.2019 06:00:00 2,4 2,3 2,4 3,4 8,1 11 6 18 10 NW 1027,3 0,2 0 0,0
13.01.2019 05:00:00 2,4 2,3 2,4 3,3 8,1 13 7 23 13 NW 1027,9 0,4 0 0,2
13.01.2019 04:00:00 2,3 2,2 2,1 3,3 8,1 15 8 22 12 NW 1028,2 0,4 0 0,2
13.01.2019 03:00:00 2,1 1,8 2,0 3,3 8,1 15 8 22 12 NW 1028,6 0,2 0 0,2
13.01.2019 02:00:00 2,0 1,6 2,0 3,3 8,1 14 8 23 13 NW 1028,8 0,3 0 0,2
13.01.2019 01:00:00 1,9 1,5 1,8 3,3 8,2 18 10 23 13 NW 1029,4 0,2 0 0,0
13.01.2019 00:00:00 1,8 1,2 1,7 3,3 8,1 11 6 23 12 NW 1030,1 0,3 0 0,0
12.01.2019 23:00:00 2,0 1,4 1,8 3,3 8,2 17 9 23 13 NW 1030,4 7 0 0,0
12.01.2019 22:00:00 2,0 1,4 1,9 3,2 8,2 13 7 23 13 WNW 1030,4 5 0 0,0
12.01.2019 21:00:00 2,1 1,4 1,9 3,2 8,2 14 7 19 10 WNW 1030,7 6 0 0,0
12.01.2019 20:00:00 2,3 1,6 2,1 3,2 8,2 14 8 23 12 NW 1031,1 6 0 0,0
12.01.2019 19:00:00 2,4 1,4 1,9 3,1 8,2 9 5 21 11 NW 1030,9 4,4 0 0,2
12.01.2019 18:00:00 2,7 1,2 2,2 3,1 8,2 13 7 19 10 NW 1030,4 11 0 0,0
12.01.2019 17:00:00 3,0 0,9 2,9 3,1 8,2 10 5 23 12 NW 1030,1 45 0 0,0
12.01.2019 16:00:00 3,7 0,2 3,8 3,0 8,2 12 7 23 12 NNW 1029,9 18 0 0,0
12.01.2019 15:00:00 3,8 1,2 4,9 3,0 8,2 13 7 23 13 NNW 1029,9 60 0 0,0
12.01.2019 14:00:00 3,4 2,7 4,1 3,0 8,2 13 7 20 11 NW 1030,4 42 0 0,0
12.01.2019 13:00:00 2,6 2,5 3,4 3,0 8,2 13 7 24 13 NW 1031,2 19 0 0,0
12.01.2019 12:00:00 2,1 2,0 2,3 3,0 8,2 17 9 23 13 NNW 1031,5 13 0 0,0
12.01.2019 11:00:00 1,3 1,2 1,1 2,9 8,2 16 9 21 11 NW 1032,1 6 0 0,0
12.01.2019 10:00:00 0,6 0,5 0,2 2,9 8,2 13 7 17 9 NW 1032,1 0,2 0 0,0
12.01.2019 09:00:00 0,2 0,1 0,1 3,0 8,3 13 7 18 10 NW 1031,9 0,2 0 0,0
12.01.2019 08:00:00 0,1 0,0 0,1 2,9 8,2 12 7 16 9 NW 1031,6 0,1 0 0,0
12.01.2019 07:00:00 0,0 -0,1 0,0 2,9 8,3 8 4 12 6 WNW 1031,7 0,1 0 0,0
12.01.2019 06:00:00 -0,1 -0,4 -0,1 3,0 8,3 5 3 8 5 NW 1031,8 0,1 0 0,0
12.01.2019 05:00:00 -0,2 -0,5 -0,1 2,9 8,3 5 3 11 6 WNW 1032,3 0,2 0 0,0
12.01.2019 04:00:00 -0,2 -0,5 -0,2 2,9 8,3 9 5 15 8 WNW 1032,5 0,2 0 0,0
12.01.2019 03:00:00 -0,3 -0,6 -0,3 2,9 8,3 11 6 18 10 WNW 1032,4 0,2 0 0,0
12.01.2019 02:00:00 -0,4 -0,8 -0,5 3,0 8,3 12 6 18 10 WNW 1032,0 0,4 0 0,0
12.01.2019 01:00:00 -0,6 -1,0 -0,8 2,9 8,3 13 7 19 10 NW 1032,0 1,5 0 0,0
12.01.2019 00:00:00 -0,8 -1,2 -1,4 2,9 8,3 13 7 25 14 NW 1032,0 2,5 0 0,0
11.01.2019 23:00:00 -0,8 -1,4 -0,9 2,9 8,3 18 10 25 14 NW 1031,7 2,3 0 0,0
11.01.2019 22:00:00 -0,6 -1,7 -1,0 2,9 8,3 9 5 23 12 NNW 1031,7 7 0 0,0
11.01.2019 21:00:00 -0,5 -2,7 -1,1 2,9 8,3 16 9 31 17 NW 1031,4 33 0 0,0
11.01.2019 20:00:00 -0,5 -3,4 -1,0 2,9 8,3 25 13 35 19 NNW 1031,0 50 0 0,0
11.01.2019 19:00:00 -0,1 -4,4 -0,8 2,9 8,3 22 12 33 18 NNW 1030,4 60 0 0,0
11.01.2019 18:00:00 0,4 -4,8 -0,5 2,9 8,4 16 9 33 18 NNW 1029,9 60 4 0,0
11.01.2019 17:00:00 1,2 -5,5 0,9 2,9 8,3 16 9 29 16 NW 1029,4 59 52 0,0
11.01.2019 16:00:00 1,9 -6,4 3,3 2,9 8,4 16 8 34 18 NNW 1028,8 58 58 0,0
11.01.2019 15:00:00 1,6 -7,5 1,0 2,9 8,4 17 9 29 15 NNW 1028,3 53 18 0,0
11.01.2019 14:00:00 0,1 -6,3 -0,4 2,9 8,4 15 8 28 15 NW 1028,9 48 0 0,0
11.01.2019 13:00:00 -0,9 -5,7 -0,4 2,9 8,4 21 12 29 16 WNW 1029,4 42 4 0,0
11.01.2019 12:00:00 -1,8 -5,5 -2,4 2,9 8,4 20 11 26 14 WNW 1029,8 27 6 0,0
11.01.2019 11:00:00 -2,2 -5,5 -3,8 3,0 8,4 12 6 19 11 W 1029,6 36 36 0,0
11.01.2019 10:00:00 -4,0 -6,9 -4,6 3,0 8,4 9 5 16 9 WNW 1029,6 35 0 0,0
11.01.2019 09:00:00 -3,9 -6,5 -6,1 3,0 8,4 13 7 17 9 NW 1029,0 31 3 0,0
11.01.2019 08:00:00 -4,2 -6,2 -5,8 3,1 8,4 7 4 18 10 NW 1028,7 35 0 0,0
11.01.2019 07:00:00 -4,0 -6,0 -4,8 3,1 8,4 13 7 23 12 NW 1028,4 20 0 0,0
11.01.2019 06:00:00 -3,5 -6,1 -6,2 3,1 8,4 17 9 28 15 NW 1028,0 43 0 0,0
11.01.2019 05:00:00 -4,2 -6,5 -6,9 3,2 8,4 7 4 12 6 WNW 1028,3 46 0 0,0
11.01.2019 04:00:00 -3,9 -6,2 -6,2 3,2 8,4 4 2 18 10 WNW 1028,5 21 0 0,0
11.01.2019 03:00:00 -2,9 -5,1 -4,8 3,2 8,4 9 5 21 12 N 1028,1 32 0 0,0
11.01.2019 02:00:00 -3,1 -5,1 -6,7 3,2 8,4 11 6 18 10 NNW 1027,8 31 0 0,0
11.01.2019 01:00:00 -4,1 -5,9 -8,1 3,3 8,5 5 3 13 7 N 1028,2 19 0 0,0

tt = Température de l'air
td = dewpoint
tt 5cm = Température de l'air 5cm
tt -20cm = Température de l'air -20cm
tt -100cm = Température de l'air -100cm
ff = Vitesse du vent
fx = gusts
dd = Direction du vent
ppp = reduced air pressure
vv = visibility
sd = Ensoleillement
rr = Quantités de précipitations

stations d'obs. à proximité